Wetterdaten: aktuell Montag, 17.02.2020 05:58
Datum Zeit Temp. 2m Temp. 5cm Temp. -10cm Feuchte 2m Luftdruck Regen Wind Richtung Richtung Taupunkt Windchill Windben
17.02.2020 05:58 3,7 C -0,3 C 2,1 C 67 % 1021,9 hPa 0,0 l/m 1,9 km/h (1 Bft) SO 135 -1,8 C 3,7 C 0,0 km/h (0 Bft)
17.02.2020 05:56 3,2 C 0,0 C 2,1 C 67 % 1021,9 hPa 0,0 l/m 1,9 km/h (1 Bft) N-NO 22 -2,3 C 3,2 C 4,6 km/h (1 Bft)
17.02.2020 05:54 2,7 C 0,0 C 2,1 C 68 % 1021,9 hPa 0,0 l/m 2,1 km/h (1 Bft) NW 315 -2,6 C 2,7 C 1,9 km/h (1 Bft)
17.02.2020 05:52 2,9 C 0,5 C 2,1 C 68 % 1021,9 hPa 0,0 l/m 1,6 km/h (1 Bft) S-SW 202 -2,4 C 2,9 C 6,6 km/h (2 Bft)
17.02.2020 05:50 3,3 C 0,4 C 2,1 C 67 % 1021,9 hPa 0,0 l/m 1,3 km/h (1 Bft) O-NO 67 -2,2 C 3,3 C 0,0 km/h (0 Bft)
17.02.2020 05:48 3,7 C 0,4 C 2,1 C 67 % 1022,2 hPa 0,0 l/m 1,4 km/h (1 Bft) SW 225 -1,8 C 3,7 C 5,4 km/h (1 Bft)
17.02.2020 05:46 3,3 C 0,0 C 2,1 C 67 % 1022,2 hPa 0,0 l/m 1,3 km/h (1 Bft) SO 135 -2,2 C 3,3 C 0,0 km/h (0 Bft)
17.02.2020 05:44 3,4 C 0,0 C 2,1 C 67 % 1022,2 hPa 0,0 l/m 1,3 km/h (1 Bft) NW 315 -2,1 C 3,4 C 0,0 km/h (0 Bft)
17.02.2020 05:42 3,0 C 0,5 C 2,1 C 67 % 1022,2 hPa 0,0 l/m 1,8 km/h (1 Bft) O-SO 112 -2,5 C 3,0 C 3,7 km/h (1 Bft)
17.02.2020 05:40 2,9 C 0,4 C 2,1 C 68 % 1022,2 hPa 0,0 l/m 2,1 km/h (1 Bft) N-NO 22 -2,4 C 2,9 C 0,0 km/h (0 Bft)
17.02.2020 05:38 3,0 C 0,5 C 2,1 C 67 % 1022,2 hPa 0,0 l/m 2,1 km/h (1 Bft) S-SO 157 -2,5 C 3,0 C 3,5 km/h (1 Bft)
17.02.2020 05:36 3,1 C 0,4 C 2,1 C 66 % 1022,2 hPa 0,0 l/m 1,8 km/h (1 Bft) W 270 -2,6 C 3,1 C 0,0 km/h (0 Bft)
17.02.2020 05:34 2,9 C 0,9 C 2,1 C 68 % 1022,2 hPa 0,0 l/m 1,9 km/h (1 Bft) S-SO 157 -2,4 C 2,9 C 1,9 km/h (1 Bft)
17.02.2020 05:32 3,4 C 0,6 C 2,1 C 66 % 1022,2 hPa 0,0 l/m 2,3 km/h (1 Bft) O 90 -2,3 C 3,4 C 3,7 km/h (1 Bft)
17.02.2020 05:30 3,4 C 0,3 C 2,1 C 66 % 1022,2 hPa 0,0 l/m 1,8 km/h (1 Bft) S-SW 202 -2,3 C 3,4 C 8,5 km/h (2 Bft)
17.02.2020 05:28 3,2 C 0,8 C 2,1 C 66 % 1022,1 hPa 0,0 l/m 1,4 km/h (1 Bft) NW 315 -2,5 C 3,2 C 2,9 km/h (1 Bft)
17.02.2020 05:26 3,3 C 0,0 C 2,1 C 66 % 1022,1 hPa 0,0 l/m 1,3 km/h (1 Bft) S-SW 202 -2,4 C 3,3 C 0,0 km/h (0 Bft)
17.02.2020 05:24 3,2 C 0,3 C 2,1 C 66 % 1022,1 hPa 0,0 l/m 1,1 km/h (1 Bft) O-NO 67 -2,5 C 3,2 C 3,5 km/h (1 Bft)
17.02.2020 05:22 3,1 C 0,3 C 2,1 C 66 % 1022,1 hPa 0,0 l/m 1,1 km/h (1 Bft) O-SO 112 -2,6 C 3,1 C 4,8 km/h (1 Bft)
17.02.2020 05:20 3,2 C 0,4 C 2,1 C 66 % 1022,1 hPa 0,0 l/m 0,6 km/h (0 Bft) O-NO 67 -2,5 C 3,2 C 0,0 km/h (0 Bft)
17.02.2020 05:18 3,2 C -0,4 C 2,1 C 66 % 1022,1 hPa 0,0 l/m 0,8 km/h (0 Bft) N-NW 337 -2,5 C 3,2 C 0,0 km/h (0 Bft)
17.02.2020 05:16 3,2 C -0,4 C 2,1 C 66 % 1022,1 hPa 0,0 l/m 0,8 km/h (0 Bft) O-NO 67 -2,5 C 3,2 C 0,0 km/h (0 Bft)
17.02.2020 05:14 3,1 C -0,1 C 2,1 C 66 % 1022,1 hPa 0,0 l/m 0,8 km/h (0 Bft) O-NO 67 -2,6 C 3,1 C 0,0 km/h (0 Bft)
17.02.2020 05:12 3,4 C 0,1 C 2,1 C 66 % 1022,1 hPa 0,0 l/m 0,5 km/h (0 Bft) S-SO 157 -2,3 C 3,4 C 5,8 km/h (2 Bft)
17.02.2020 05:10 3,1 C 0,1 C 2,1 C 66 % 1022,1 hPa 0,0 l/m 0,3 km/h (0 Bft) S 180 -2,6 C 3,1 C 0,0 km/h (0 Bft)
17.02.2020 05:08 3,3 C 0,3 C 2,1 C 66 % 1022,1 hPa 0,0 l/m 0,0 km/h (0 Bft) S 180 -2,4 C 3,3 C 0,0 km/h (0 Bft)
17.02.2020 05:06 3,6 C -0,3 C 2,1 C 66 % 1022,1 hPa 0,0 l/m 0,2 km/h (0 Bft) S 180 -2,1 C 3,6 C 2,1 km/h (1 Bft)
17.02.2020 05:04 3,4 C -0,4 C 2,1 C 65 % 1022,1 hPa 0,0 l/m 0,3 km/h (0 Bft) N-NW 337 -2,5 C 3,4 C 0,0 km/h (0 Bft)
17.02.2020 05:02 3,3 C 0,1 C 2,1 C 65 % 1022,1 hPa 0,0 l/m 0,6 km/h (0 Bft) O 90 -2,6 C 3,3 C 0,0 km/h (0 Bft)
17.02.2020 05:00 3,4 C -0,3 C 2,1 C 65 % 1022,1 hPa 0,0 l/m 0,6 km/h (0 Bft) NW 315 -2,5 C 3,4 C 0,0 km/h (0 Bft)
17.02.2020 04:58 3,4 C -0,3 C 2,1 C 65 % 1022,1 hPa 0,0 l/m 0,6 km/h (0 Bft) N-NO 22 -2,5 C 3,4 C 0,0 km/h (0 Bft)
17.02.2020 04:56 3,3 C 0,0 C 2,0 C 65 % 1022,1 hPa 0,0 l/m 0,6 km/h (0 Bft) S-SO 157 -2,6 C 3,3 C 1,9 km/h (1 Bft)
17.02.2020 04:54 3,4 C 0,1 C 2,0 C 65 % 1022,1 hPa 0,0 l/m 0,5 km/h (0 Bft) SO 135 -2,5 C 3,4 C 0,0 km/h (0 Bft)
17.02.2020 04:52 3,4 C -0,5 C 2,0 C 65 % 1022,1 hPa 0,0 l/m 0,5 km/h (0 Bft) O-SO 112 -2,5 C 3,4 C 3,9 km/h (1 Bft)
17.02.2020 04:50 3,7 C -0,3 C 2,0 C 65 % 1022,1 hPa 0,0 l/m 0,6 km/h (0 Bft) N 360 -2,3 C 3,7 C 2,3 km/h (1 Bft)
17.02.2020 04:48 3,6 C -0,1 C 2,0 C 65 % 1021,9 hPa 0,0 l/m 1,0 km/h (0 Bft) O-NO 67 -2,4 C 3,6 C 0,0 km/h (0 Bft)
17.02.2020 04:46 3,6 C 0,5 C 2,0 C 65 % 1021,9 hPa 0,0 l/m 1,8 km/h (1 Bft) O-NO 67 -2,4 C 3,6 C 0,0 km/h (0 Bft)
17.02.2020 04:44 3,7 C 0,1 C 2,0 C 65 % 1021,9 hPa 0,0 l/m 2,3 km/h (1 Bft) S-SO 157 -2,3 C 3,7 C 2,1 km/h (1 Bft)
17.02.2020 04:42 3,4 C 0,4 C 2,0 C 65 % 1021,9 hPa 0,0 l/m 2,9 km/h (1 Bft) N-NO 22 -2,5 C 3,4 C 0,0 km/h (0 Bft)
17.02.2020 04:40 3,4 C 1,2 C 2,0 C 65 % 1021,9 hPa 0,0 l/m 3,5 km/h (1 Bft) O-NO 67 -2,5 C 3,4 C 4,1 km/h (1 Bft)
17.02.2020 04:38 3,7 C 1,6 C 2,0 C 65 % 1021,9 hPa 0,0 l/m 4,3 km/h (1 Bft) S-SW 202 -2,3 C 3,7 C 2,1 km/h (1 Bft)
17.02.2020 04:36 4,0 C 1,6 C 2,0 C 65 % 1021,9 hPa 0,0 l/m 4,7 km/h (1 Bft) S-SO 157 -2,0 C 4,0 C 5,6 km/h (1 Bft)
17.02.2020 04:34 4,9 C 1,6 C 2,0 C 65 % 1021,9 hPa 0,0 l/m 5,1 km/h (1 Bft) O-NO 67 -1,1 C 4,9 C 5,0 km/h (1 Bft)
17.02.2020 04:32 4,7 C 1,6 C 2,0 C 65 % 1021,9 hPa 0,0 l/m 5,1 km/h (1 Bft) O-SO 112 -1,3 C 4,7 C 4,4 km/h (1 Bft)
17.02.2020 04:30 4,4 C 1,7 C 2,0 C 66 % 1021,9 hPa 0,0 l/m 5,5 km/h (1 Bft) O-NO 67 -1,4 C 4,4 C 10,0 km/h (2 Bft)
17.02.2020 04:28 4,0 C 1,8 C 2,0 C 66 % 1021,9 hPa 0,0 l/m 4,7 km/h (1 Bft) O-NO 67 -1,8 C 4,0 C 8,1 km/h (2 Bft)
17.02.2020 04:26 4,4 C 2,1 C 2,0 C 66 % 1021,9 hPa 0,0 l/m 4,0 km/h (1 Bft) SW 225 -1,4 C 4,4 C 7,0 km/h (2 Bft)
17.02.2020 04:24 4,4 C 0,9 C 2,0 C 66 % 1021,9 hPa 0,0 l/m 3,7 km/h (1 Bft) NO 45 -1,4 C 4,4 C 6,8 km/h (2 Bft)
17.02.2020 04:22 4,3 C 0,6 C 2,1 C 66 % 1021,9 hPa 0,0 l/m 3,9 km/h (1 Bft) O-NO 67 -1,5 C 4,3 C 4,4 km/h (1 Bft)
17.02.2020 04:20 3,4 C 0,8 C 2,1 C 67 % 1021,9 hPa 0,0 l/m 3,5 km/h (1 Bft) O-NO 67 -2,1 C 3,4 C 5,0 km/h (1 Bft)
17.02.2020 04:18 3,6 C 0,6 C 2,1 C 67 % 1021,9 hPa 0,0 l/m 3,1 km/h (1 Bft) SO 135 -1,9 C 3,6 C 2,5 km/h (1 Bft)
17.02.2020 04:16 3,7 C 0,9 C 2,1 C 67 % 1021,9 hPa 0,0 l/m 2,6 km/h (1 Bft) N 360 -1,8 C 3,7 C 0,0 km/h (0 Bft)
17.02.2020 04:14 3,8 C 0,5 C 2,1 C 67 % 1021,9 hPa 0,0 l/m 2,1 km/h (1 Bft) O-NO 67 -1,8 C 3,8 C 6,2 km/h (2 Bft)
17.02.2020 04:12 3,3 C 0,0 C 2,1 C 67 % 1021,9 hPa 0,0 l/m 1,8 km/h (1 Bft) O-NO 67 -2,2 C 3,3 C 5,8 km/h (2 Bft)
17.02.2020 04:10 3,1 C -0,4 C 2,1 C 67 % 1021,9 hPa 0,0 l/m 0,8 km/h (0 Bft) O-NO 67 -2,4 C 3,1 C 4,2 km/h (1 Bft)
17.02.2020 04:08 3,3 C -0,4 C 2,1 C 67 % 1022,1 hPa 0,0 l/m 0,6 km/h (0 Bft) N 360 -2,2 C 3,3 C 0,0 km/h (0 Bft)
17.02.2020 04:06 3,1 C 0,1 C 2,1 C 67 % 1022,1 hPa 0,0 l/m 1,0 km/h (0 Bft) N-NW 337 -2,4 C 3,1 C 0,0 km/h (0 Bft)
17.02.2020 04:04 3,1 C 0,1 C 2,0 C 67 % 1022,1 hPa 0,0 l/m 1,0 km/h (0 Bft) S 180 -2,4 C 3,1 C 0,0 km/h (0 Bft)
17.02.2020 04:02 3,6 C -0,8 C 2,1 C 67 % 1022,1 hPa 0,0 l/m 0,6 km/h (0 Bft) O-SO 112 -1,9 C 3,6 C 3,7 km/h (1 Bft)
17.02.2020 04:00 3,3 C -0,5 C 2,0 C 67 % 1022,1 hPa 0,0 l/m 0,6 km/h (0 Bft) N-NO 22 -2,2 C 3,3 C 0,0 km/h (0 Bft)
17.02.2020 03:58 3,4 C -0,1 C 2,0 C 67 % 1022,1 hPa 0,0 l/m 1,0 km/h (0 Bft) S-SW 202 -2,1 C 3,4 C 2,9 km/h (1 Bft)
17.02.2020 03:56 3,4 C 0,3 C 2,0 C 67 % 1022,1 hPa 0,0 l/m 0,8 km/h (0 Bft) NO 45 -2,1 C 3,4 C 4,2 km/h (1 Bft)
17.02.2020 03:54 3,6 C 0,1 C 2,0 C 67 % 1022,1 hPa 0,0 l/m 0,8 km/h (0 Bft) O-SO 112 -1,9 C 3,6 C 0,0 km/h (0 Bft)
17.02.2020 03:52 3,6 C 0,6 C 2,0 C 67 % 1022,1 hPa 0,0 l/m 1,4 km/h (1 Bft) O-SO 112 -1,9 C 3,6 C 0,0 km/h (0 Bft)
17.02.2020 03:50 3,8 C 0,8 C 2,0 C 67 % 1022,1 hPa 0,0 l/m 1,8 km/h (1 Bft) NW 315 -1,8 C 3,8 C 0,0 km/h (0 Bft)
17.02.2020 03:48 3,8 C 0,6 C 2,0 C 67 % 1021,9 hPa 0,0 l/m 1,9 km/h (1 Bft) N-NW 337 -1,8 C 3,8 C 2,9 km/h (1 Bft)
17.02.2020 03:46 3,6 C 0,8 C 2,0 C 67 % 1021,9 hPa 0,0 l/m 2,4 km/h (1 Bft) N-NW 337 -1,9 C 3,6 C 0,0 km/h (0 Bft)
17.02.2020 03:44 3,4 C 0,8 C 2,0 C 67 % 1021,9 hPa 0,0 l/m 3,4 km/h (1 Bft) SW 225 -2,1 C 3,4 C 2,3 km/h (1 Bft)
17.02.2020 03:42 3,3 C 0,9 C 2,0 C 67 % 1021,9 hPa 0,0 l/m 4,0 km/h (1 Bft) SO 135 -2,2 C 3,3 C 7,0 km/h (2 Bft)
17.02.2020 03:40 3,6 C 0,6 C 2,0 C 67 % 1021,9 hPa 0,0 l/m 3,4 km/h (1 Bft) S-SW 202 -1,9 C 3,6 C 0,0 km/h (0 Bft)
17.02.2020 03:38 3,9 C 0,9 C 2,0 C 67 % 1021,9 hPa 0,0 l/m 3,4 km/h (1 Bft) S-SO 157 -1,7 C 3,9 C 5,2 km/h (1 Bft)
17.02.2020 03:36 3,6 C 0,6 C 2,1 C 67 % 1021,9 hPa 0,0 l/m 3,5 km/h (1 Bft) SO 135 -1,9 C 3,6 C 5,4 km/h (1 Bft)
17.02.2020 03:34 3,7 C 0,9 C 2,1 C 67 % 1021,9 hPa 0,0 l/m 3,1 km/h (1 Bft) O-NO 67 -1,8 C 3,7 C 8,9 km/h (2 Bft)
17.02.2020 03:32 3,4 C 0,9 C 2,1 C 67 % 1021,9 hPa 0,0 l/m 1,9 km/h (1 Bft) O-NO 67 -2,1 C 3,4 C 8,5 km/h (2 Bft)
17.02.2020 03:30 3,7 C 0,5 C 2,1 C 67 % 1021,9 hPa 0,0 l/m 1,4 km/h (1 Bft) NO 45 -1,8 C 3,7 C 0,0 km/h (0 Bft)
17.02.2020 03:28 3,4 C 0,1 C 2,1 C 67 % 1021,1 hPa 0,0 l/m 1,9 km/h (1 Bft) O-NO 67 -2,1 C 3,4 C 0,0 km/h (0 Bft)
17.02.2020 03:26 3,6 C -0,3 C 2,1 C 67 % 1021,1 hPa 0,0 l/m 2,3 km/h (1 Bft) O-NO 67 -1,9 C 3,6 C 3,7 km/h (1 Bft)
17.02.2020 03:24 3,4 C -0,5 C 2,1 C 67 % 1021,1 hPa 0,0 l/m 2,3 km/h (1 Bft) SW 225 -2,1 C 3,4 C 0,0 km/h (0 Bft)
17.02.2020 03:22 3,2 C -0,4 C 2,1 C 67 % 1021,1 hPa 0,0 l/m 2,4 km/h (1 Bft) S-SO 157 -2,3 C 3,2 C 0,0 km/h (0 Bft)
17.02.2020 03:20 3,0 C -0,3 C 2,1 C 67 % 1021,1 hPa 0,0 l/m 2,9 km/h (1 Bft) O 90 -2,5 C 3,0 C 3,1 km/h (1 Bft)
17.02.2020 03:18 3,0 C -0,1 C 2,1 C 67 % 1021,1 hPa 0,0 l/m 3,1 km/h (1 Bft) O-SO 112 -2,5 C 3,0 C 4,8 km/h (1 Bft)
17.02.2020 03:16 2,7 C 0,1 C 2,1 C 68 % 1021,1 hPa 0,0 l/m 3,1 km/h (1 Bft) O-NO 67 -2,6 C 2,7 C 4,8 km/h (1 Bft)
17.02.2020 03:14 3,2 C 0,3 C 2,1 C 67 % 1021,1 hPa 0,0 l/m 2,7 km/h (1 Bft) O-NO 67 -2,3 C 3,2 C 3,5 km/h (1 Bft)
17.02.2020 03:12 3,6 C 1,3 C 2,1 C 67 % 1021,1 hPa 0,0 l/m 3,1 km/h (1 Bft) N 360 -1,9 C 3,6 C 2,1 km/h (1 Bft)
17.02.2020 03:10 3,6 C 1,1 C 2,1 C 67 % 1021,1 hPa 0,0 l/m 2,6 km/h (1 Bft) O-NO 67 -1,9 C 3,6 C 2,5 km/h (1 Bft)
17.02.2020 03:08 3,6 C 1,1 C 2,1 C 67 % 1021,6 hPa 0,0 l/m 2,6 km/h (1 Bft) O-NO 67 -1,9 C 3,6 C 2,5 km/h (1 Bft)
17.02.2020 03:06 3,6 C 1,1 C 2,1 C 67 % 1021,6 hPa 0,0 l/m 2,6 km/h (1 Bft) O-NO 67 -1,9 C 3,6 C 2,5 km/h (1 Bft)
17.02.2020 03:04 3,6 C 1,1 C 2,1 C 67 % 1021,6 hPa 0,0 l/m 2,6 km/h (1 Bft) O-NO 67 -1,9 C 3,6 C 2,5 km/h (1 Bft)
17.02.2020 03:02 3,6 C 1,1 C 2,1 C 67 % 1021,6 hPa 0,0 l/m 2,6 km/h (1 Bft) O-NO 67 -1,9 C 3,6 C 2,5 km/h (1 Bft)
17.02.2020 03:00 3,6 C 0,5 C 2,1 C 67 % 1021,6 hPa 0,0 l/m 2,4 km/h (1 Bft) S-SO 157 -1,9 C 3,6 C 5,0 km/h (1 Bft)
17.02.2020 02:58 3,9 C -0,1 C 2,1 C 67 % 1021,6 hPa 0,0 l/m 2,3 km/h (1 Bft) O-SO 112 -1,7 C 3,9 C 5,4 km/h (1 Bft)
17.02.2020 02:56 3,3 C -0,3 C 2,1 C 67 % 1021,6 hPa 0,0 l/m 1,6 km/h (1 Bft) O-NO 67 -2,2 C 3,3 C 9,3 km/h (2 Bft)
17.02.2020 02:54 3,9 C -0,1 C 2,1 C 68 % 1021,6 hPa 0,0 l/m 1,3 km/h (1 Bft) N 360 -1,5 C 3,9 C 0,0 km/h (0 Bft)
17.02.2020 02:52 3,1 C 0,1 C 2,1 C 67 % 1021,6 hPa 0,0 l/m 1,4 km/h (1 Bft) N-NO 22 -2,4 C 3,1 C 2,3 km/h (1 Bft)
17.02.2020 02:50 3,0 C 0,9 C 2,1 C 67 % 1021,6 hPa 0,0 l/m 2,1 km/h (1 Bft) S-SO 157 -2,5 C 3,0 C 0,0 km/h (0 Bft)
17.02.2020 02:48 3,1 C 1,2 C 2,0 C 67 % 1020,9 hPa 0,0 l/m 2,6 km/h (1 Bft) S-SO 157 -2,4 C 3,1 C 2,1 km/h (1 Bft)
17.02.2020 02:46 3,4 C 1,2 C 2,0 C 68 % 1020,9 hPa 0,0 l/m 3,4 km/h (1 Bft) S-SO 157 -1,9 C 3,4 C 1,9 km/h (1 Bft)
17.02.2020 02:44 3,3 C 1,6 C 2,0 C 68 % 1020,9 hPa 0,0 l/m 4,0 km/h (1 Bft) SO 135 -2,0 C 3,3 C 0,0 km/h (0 Bft)
17.02.2020 02:42 3,4 C 1,2 C 2,0 C 68 % 1020,9 hPa 0,0 l/m 4,3 km/h (1 Bft) S-SO 157 -1,9 C 3,4 C 2,5 km/h (1 Bft)
17.02.2020 02:40 4,2 C 0,6 C 2,1 C 68 % 1020,9 hPa 0,0 l/m 3,9 km/h (1 Bft) O-NO 67 -1,2 C 4,2 C 7,1 km/h (2 Bft)
17.02.2020 02:38 3,7 C 0,6 C 2,1 C 68 % 1020,9 hPa 0,0 l/m 2,9 km/h (1 Bft) NO 45 -1,6 C 3,7 C 6,4 km/h (2 Bft)
17.02.2020 02:36 3,6 C 0,5 C 2,1 C 67 % 1020,9 hPa 0,0 l/m 2,6 km/h (1 Bft) O-NO 67 -1,9 C 3,6 C 6,4 km/h (2 Bft)
17.02.2020 02:34 3,8 C 0,7 C 2,1 C 67 % 1020,9 hPa 0,0 l/m 2,1 km/h (1 Bft) O-NO 67 -1,8 C 3,8 C 6,0 km/h (2 Bft)
17.02.2020 02:32 3,7 C 0,5 C 2,1 C 67 % 1020,9 hPa 0,0 l/m 1,6 km/h (1 Bft) O 90 -1,8 C 3,7 C 4,2 km/h (1 Bft)
17.02.2020 02:30 4,0 C 0,9 C 2,1 C 67 % 1020,9 hPa 0,0 l/m 1,6 km/h (1 Bft) O-SO 112 -1,6 C 4,0 C 0,0 km/h (0 Bft)
17.02.2020 02:28 4,2 C 1,3 C 2,1 C 67 % 1020,6 hPa 0,0 l/m 2,3 km/h (1 Bft) N-NW 337 -1,4 C 4,2 C 0,0 km/h (0 Bft)
17.02.2020 02:26 3,6 C 2,1 C 2,1 C 67 % 1020,6 hPa 0,0 l/m 3,1 km/h (1 Bft) S-SO 157 -1,9 C 3,6 C 5,0 km/h (1 Bft)
17.02.2020 02:24 3,7 C 2,1 C 2,1 C 68 % 1020,6 hPa 0,0 l/m 3,1 km/h (1 Bft) S-SW 202 -1,6 C 3,7 C 3,3 km/h (1 Bft)
17.02.2020 02:22 4,0 C 1,7 C 2,1 C 68 % 1020,6 hPa 0,0 l/m 2,7 km/h (1 Bft) S-SW 202 -1,4 C 4,0 C 2,1 km/h (1 Bft)
17.02.2020 02:20 4,2 C 1,4 C 2,1 C 68 % 1020,6 hPa 0,0 l/m 2,7 km/h (1 Bft) S-SW 202 -1,2 C 4,2 C 4,1 km/h (1 Bft)
17.02.2020 02:18 4,3 C 0,4 C 2,1 C 68 % 1020,6 hPa 0,0 l/m 2,3 km/h (1 Bft) O-SO 112 -1,1 C 4,3 C 6,4 km/h (2 Bft)
17.02.2020 02:16 3,9 C 0,4 C 2,1 C 69 % 1020,6 hPa 0,0 l/m 1,4 km/h (1 Bft) O-NO 67 -1,3 C 3,9 C 5,2 km/h (1 Bft)
17.02.2020 02:14 3,1 C 0,4 C 2,1 C 69 % 1020,6 hPa 0,0 l/m 0,6 km/h (0 Bft) O-NO 67 -2,0 C 3,1 C 0,0 km/h (0 Bft)
17.02.2020 02:12 3,1 C 0,6 C 2,1 C 69 % 1020,6 hPa 0,0 l/m 0,3 km/h (0 Bft) S-SW 202 -2,0 C 3,1 C 0,0 km/h (0 Bft)
17.02.2020 02:10 3,2 C -0,3 C 2,1 C 69 % 1020,6 hPa 0,0 l/m 0,3 km/h (0 Bft) S-SO 157 -1,9 C 3,2 C 2,5 km/h (1 Bft)
17.02.2020 02:08 2,7 C -0,8 C 2,1 C 70 % 1020,1 hPa 0,0 l/m 0,2 km/h (0 Bft) O 90 -2,2 C 2,7 C 0,0 km/h (0 Bft)
17.02.2020 02:06 2,7 C -0,4 C 2,1 C 70 % 1020,1 hPa 0,0 l/m 0,2 km/h (0 Bft) O-SO 112 -2,2 C 2,7 C 0,0 km/h (0 Bft)
17.02.2020 02:04 3,1 C -0,5 C 2,1 C 69 % 1020,1 hPa 0,0 l/m 0,6 km/h (0 Bft) O-SO 112 -2,0 C 3,1 C 0,0 km/h (0 Bft)
17.02.2020 02:02 3,0 C -0,3 C 2,1 C 69 % 1020,1 hPa 0,0 l/m 1,0 km/h (0 Bft) S-SO 157 -2,1 C 3,0 C 0,0 km/h (0 Bft)
17.02.2020 02:00 2,9 C -0,1 C 2,1 C 70 % 1020,1 hPa 0,0 l/m 1,3 km/h (1 Bft) NW 315 -2,0 C 2,9 C 0,0 km/h (0 Bft)
17.02.2020 01:58 2,7 C 0,0 C 2,1 C 70 % 1020,1 hPa 0,0 l/m 1,8 km/h (1 Bft) NW 315 -2,2 C 2,7 C 2,7 km/h (1 Bft)
17.02.2020 01:56 2,7 C 0,5 C 2,1 C 70 % 1020,1 hPa 0,0 l/m 2,4 km/h (1 Bft) S-SW 202 -2,2 C 2,7 C 0,0 km/h (0 Bft)
17.02.2020 01:54 2,9 C 1,3 C 2,1 C 70 % 1020,1 hPa 0,0 l/m 2,3 km/h (1 Bft) S-SW 202 -2,0 C 2,9 C 2,1 km/h (1 Bft)
17.02.2020 01:52 3,0 C 1,3 C 2,1 C 69 % 1020,1 hPa 0,0 l/m 2,3 km/h (1 Bft) S-SO 157 -2,1 C 3,0 C 3,7 km/h (1 Bft)
17.02.2020 01:50 3,1 C 1,3 C 2,1 C 69 % 1020,1 hPa 0,0 l/m 2,4 km/h (1 Bft) S 180 -2,0 C 3,1 C 3,1 km/h (1 Bft)
17.02.2020 01:48 3,3 C 0,8 C 2,1 C 69 % 1019,9 hPa 0,0 l/m 2,4 km/h (1 Bft) O-NO 67 -1,8 C 3,3 C 3,3 km/h (1 Bft)
17.02.2020 01:46 3,4 C 0,4 C 2,1 C 69 % 1019,9 hPa 0,0 l/m 2,7 km/h (1 Bft) O 90 -1,7 C 3,4 C 8,9 km/h (2 Bft)
17.02.2020 01:44 2,7 C 0,5 C 2,1 C 70 % 1019,9 hPa 0,0 l/m 2,6 km/h (1 Bft) O-SO 112 -2,2 C 2,7 C 2,3 km/h (1 Bft)
17.02.2020 01:42 3,1 C 1,0 C 2,1 C 69 % 1019,9 hPa 0,0 l/m 2,9 km/h (1 Bft) O 90 -2,0 C 3,1 C 0,0 km/h (0 Bft)
17.02.2020 01:40 2,7 C 1,1 C 2,1 C 70 % 1019,9 hPa 0,0 l/m 2,4 km/h (1 Bft) O-NO 67 -2,2 C 2,7 C 4,4 km/h (1 Bft)
17.02.2020 01:38 2,6 C 0,6 C 2,1 C 70 % 1019,9 hPa 0,0 l/m 1,9 km/h (1 Bft) SO 135 -2,3 C 2,6 C 2,7 km/h (1 Bft)
17.02.2020 01:36 2,7 C 0,1 C 2,1 C 70 % 1019,9 hPa 0,0 l/m 1,6 km/h (1 Bft) O 90 -2,2 C 2,7 C 6,4 km/h (2 Bft)
17.02.2020 01:34 2,9 C 0,0 C 2,1 C 70 % 1019,9 hPa 0,0 l/m 0,6 km/h (0 Bft) O-NO 67 -2,0 C 2,9 C 5,2 km/h (1 Bft)
17.02.2020 01:32 3,1 C -0,5 C 2,1 C 69 % 1019,9 hPa 0,0 l/m 0,0 km/h (0 Bft) O 90 -2,0 C 3,1 C 2,9 km/h (1 Bft)
17.02.2020 01:30 3,0 C -0,5 C 2,1 C 69 % 1019,9 hPa 0,0 l/m 0,2 km/h (0 Bft) N 360 -2,1 C 3,0 C 0,0 km/h (0 Bft)
17.02.2020 01:28 2,7 C -0,4 C 2,1 C 70 % 1019,7 hPa 0,0 l/m 0,2 km/h (0 Bft) S-SW 202 -2,2 C 2,7 C 0,0 km/h (0 Bft)
17.02.2020 01:26 2,5 C 0,0 C 2,1 C 70 % 1019,7 hPa 0,0 l/m 0,2 km/h (0 Bft) SO 135 -2,4 C 2,5 C 0,0 km/h (0 Bft)
17.02.2020 01:24 2,5 C 0,4 C 2,1 C 70 % 1019,7 hPa 0,0 l/m 0,5 km/h (0 Bft) N-NW 337 -2,4 C 2,5 C 0,0 km/h (0 Bft)
17.02.2020 01:22 2,4 C 0,5 C 2,1 C 70 % 1019,7 hPa 0,0 l/m 0,8 km/h (0 Bft) S-SW 202 -2,5 C 2,4 C 0,0 km/h (0 Bft)
17.02.2020 01:20 2,4 C 0,6 C 2,1 C 70 % 1019,7 hPa 0,0 l/m 0,8 km/h (0 Bft) S-SO 157 -2,5 C 2,4 C 3,5 km/h (1 Bft)
17.02.2020 01:18 2,4 C 0,6 C 2,1 C 70 % 1019,7 hPa 0,0 l/m 0,8 km/h (0 Bft) S-SO 157 -2,5 C 2,4 C 0,0 km/h (0 Bft)
17.02.2020 01:16 2,6 C 0,3 C 2,1 C 70 % 1019,7 hPa 0,0 l/m 0,8 km/h (0 Bft) O-SO 112 -2,3 C 2,6 C 0,0 km/h (0 Bft)
17.02.2020 01:14 2,3 C 0,0 C 2,1 C 70 % 1019,7 hPa 0,0 l/m 0,5 km/h (0 Bft) O-NO 67 -2,6 C 2,3 C 3,5 km/h (1 Bft)
17.02.2020 01:12 2,4 C -0,4 C 2,1 C 70 % 1019,7 hPa 0,0 l/m 0,2 km/h (0 Bft) O-NO 67 -2,5 C 2,4 C 3,3 km/h (1 Bft)
17.02.2020 01:10 2,5 C 0,1 C 2,1 C 70 % 1019,7 hPa 0,0 l/m 0,0 km/h (0 Bft) S-SO 157 -2,4 C 2,5 C 0,0 km/h (0 Bft)
17.02.2020 01:08 2,7 C 0,5 C 2,1 C 70 % 1020,1 hPa 0,0 l/m 0,0 km/h (0 Bft) S-SW 202 -2,2 C 2,7 C 1,9 km/h (1 Bft)
17.02.2020 01:06 2,6 C 0,9 C 2,1 C 70 % 1020,1 hPa 0,0 l/m 0,0 km/h (0 Bft) S-SW 202 -2,3 C 2,6 C 0,0 km/h (0 Bft)
17.02.2020 01:04 2,7 C 0,3 C 2,1 C 69 % 1020,1 hPa 0,0 l/m 0,0 km/h (0 Bft) S-SO 157 -2,4 C 2,7 C 0,0 km/h (0 Bft)
17.02.2020 01:02 3,1 C 0,1 C 2,1 C 68 % 1020,1 hPa 0,0 l/m 0,2 km/h (0 Bft) N-NO 22 -2,2 C 3,1 C 0,0 km/h (0 Bft)
17.02.2020 01:00 2,7 C 0,3 C 2,1 C 69 % 1020,1 hPa 0,0 l/m 0,5 km/h (0 Bft) W-SW 247 -2,4 C 2,7 C 0,0 km/h (0 Bft)
17.02.2020 00:58 3,0 C -0,1 C 2,1 C 68 % 1020,1 hPa 0,0 l/m 0,5 km/h (0 Bft) SW 225 -2,3 C 3,0 C 0,0 km/h (0 Bft)
17.02.2020 00:56 3,0 C 0,0 C 2,1 C 68 % 1020,1 hPa 0,0 l/m 0,5 km/h (0 Bft) N-NO 22 -2,3 C 3,0 C 0,0 km/h (0 Bft)
17.02.2020 00:54 2,9 C 0,1 C 2,1 C 69 % 1020,1 hPa 0,0 l/m 0,5 km/h (0 Bft) NW 315 -2,2 C 2,9 C 0,0 km/h (0 Bft)
17.02.2020 00:52 2,6 C 0,0 C 2,1 C 69 % 1020,1 hPa 0,0 l/m 0,6 km/h (0 Bft) O-NO 67 -2,5 C 2,6 C 2,1 km/h (1 Bft)
17.02.2020 00:50 2,7 C -0,1 C 2,1 C 69 % 1020,1 hPa 0,0 l/m 0,2 km/h (0 Bft) O-SO 112 -2,4 C 2,7 C 3,1 km/h (1 Bft)
17.02.2020 00:48 3,1 C -0,1 C 2,1 C 68 % 1020,0 hPa 0,0 l/m 0,5 km/h (0 Bft) O 90 -2,2 C 3,1 C 0,0 km/h (0 Bft)
17.02.2020 00:46 3,0 C -0,4 C 2,1 C 68 % 1020,0 hPa 0,0 l/m 1,1 km/h (1 Bft) O-SO 112 -2,3 C 3,0 C 1,9 km/h (1 Bft)
17.02.2020 00:44 3,2 C -0,4 C 2,1 C 68 % 1020,0 hPa 0,0 l/m 1,6 km/h (1 Bft) NO 45 -2,1 C 3,2 C 0,0 km/h (0 Bft)
17.02.2020 00:42 3,0 C 0,1 C 2,1 C 68 % 1020,0 hPa 0,0 l/m 2,4 km/h (1 Bft) N-NO 22 -2,3 C 3,0 C 2,5 km/h (1 Bft)
17.02.2020 00:40 2,6 C 0,4 C 2,1 C 69 % 1020,0 hPa 0,0 l/m 3,1 km/h (1 Bft) SO 135 -2,5 C 2,6 C 0,0 km/h (0 Bft)
17.02.2020 00:38 2,5 C 0,6 C 2,1 C 69 % 1020,0 hPa 0,0 l/m 2,9 km/h (1 Bft) SO 135 -2,6 C 2,5 C 11,2 km/h (2 Bft)
17.02.2020 00:36 3,1 C 0,4 C 2,1 C 68 % 1020,0 hPa 0,0 l/m 2,3 km/h (1 Bft) S-SO 157 -2,2 C 3,1 C 3,3 km/h (1 Bft)
17.02.2020 00:34 2,9 C 0,5 C 2,1 C 69 % 1020,0 hPa 0,0 l/m 1,9 km/h (1 Bft) O-NO 67 -2,2 C 2,9 C 3,7 km/h (1 Bft)
17.02.2020 00:32 2,7 C 0,6 C 2,1 C 69 % 1020,0 hPa 0,0 l/m 1,4 km/h (1 Bft) O-NO 67 -2,4 C 2,7 C 7,5 km/h (2 Bft)
17.02.2020 00:30 3,2 C 0,1 C 2,1 C 68 % 1020,0 hPa 0,0 l/m 0,3 km/h (0 Bft) O-SO 112 -2,1 C 3,2 C 0,0 km/h (0 Bft)
17.02.2020 00:28 2,9 C 0,3 C 2,1 C 69 % 1024,1 hPa 0,0 l/m 0,6 km/h (0 Bft) N-NO 22 -2,2 C 2,9 C 0,0 km/h (0 Bft)
17.02.2020 00:26 2,6 C 0,6 C 2,1 C 69 % 1024,1 hPa 0,0 l/m 1,0 km/h (0 Bft) O-NO 67 -2,5 C 2,6 C 0,0 km/h (0 Bft)
17.02.2020 00:24 2,7 C 0,4 C 2,1 C 69 % 1024,1 hPa 0,0 l/m 1,0 km/h (0 Bft) SW 225 -2,4 C 2,7 C 2,9 km/h (1 Bft)
17.02.2020 00:22 2,9 C 0,6 C 2,1 C 69 % 1024,1 hPa 0,0 l/m 1,1 km/h (1 Bft) O-NO 67 -2,2 C 2,9 C 0,0 km/h (0 Bft)
17.02.2020 00:20 2,9 C 1,1 C 2,1 C 69 % 1024,1 hPa 0,0 l/m 1,4 km/h (1 Bft) SO 135 -2,2 C 2,9 C 2,5 km/h (1 Bft)
17.02.2020 00:18 2,9 C 1,0 C 2,1 C 69 % 1024,1 hPa 0,0 l/m 2,3 km/h (1 Bft) S-SO 157 -2,2 C 2,9 C 4,1 km/h (1 Bft)
17.02.2020 00:16 3,0 C 1,5 C 2,1 C 67 % 1024,1 hPa 0,0 l/m 1,9 km/h (1 Bft) S-SO 157 -2,5 C 3,0 C 3,9 km/h (1 Bft)
17.02.2020 00:14 2,9 C 1,4 C 2,1 C 69 % 1024,1 hPa 0,0 l/m 1,4 km/h (1 Bft) NW 315 -2,2 C 2,9 C 0,0 km/h (0 Bft)
17.02.2020 00:12 2,9 C 0,8 C 2,1 C 69 % 1024,1 hPa 0,0 l/m 1,6 km/h (1 Bft) S-SW 202 -2,2 C 2,9 C 2,5 km/h (1 Bft)
17.02.2020 00:10 3,0 C 0,5 C 2,1 C 67 % 1024,1 hPa 0,0 l/m 0,8 km/h (0 Bft) SO 135 -2,5 C 3,0 C 2,5 km/h (1 Bft)
17.02.2020 00:08 3,0 C 0,5 C 2,1 C 67 % 1024,0 hPa 0,0 l/m 0,8 km/h (0 Bft) SO 135 -2,5 C 3,0 C 2,5 km/h (1 Bft)
17.02.2020 00:06 3,0 C 0,5 C 2,1 C 67 % 1024,0 hPa 0,0 l/m 0,8 km/h (0 Bft) SO 135 -2,5 C 3,0 C 2,5 km/h (1 Bft)
17.02.2020 00:04 3,0 C 0,5 C 2,1 C 67 % 1024,0 hPa 0,0 l/m 0,8 km/h (0 Bft) SO 135 -2,5 C 3,0 C 2,5 km/h (1 Bft)
17.02.2020 00:02 3,0 C 0,5 C 2,1 C 67 % 1024,0 hPa 0,0 l/m 0,8 km/h (0 Bft) SO 135 -2,5 C 3,0 C 2,5 km/h (1 Bft)
17.02.2020 00:00 3,1 C 0,4 C 2,1 C 67 % 1024,0 hPa 0,0 l/m 0,6 km/h (0 Bft) O-SO 112 -2,4 C 3,1 C 4,4 km/h (1 Bft)
_ Min-Zeit 01:14 02:08 02:42 04:32 01:10 - 01:04 - - 04:56 01:14 00:14
Minimum _ 2,3 C -0,8 C 2,0 C 65 % 1019,7 hPa - 0,0 km/h (0 Bft) - - -2,6 C 2,3 C 0,0 km/h (0 Bft)
_ Max-Zeit 04:34 02:24 00:00 01:06 00:10 00:00 04:30 - - 02:18 04:34 00:38
Maximum _ 4,9 C 2,1 C 2,1 C 70 % 1024,1 hPa 0,0 l/m 5,5 km/h
O-NO (1 Bft)
- - -1,1 C 4,9 C 11,2 km/h
SO (2 Bft)
Durchschnitt _ 3,3 C 0,4 C 2,1 C 68 % 1021,4 hPa #0,0 l/m 1,7 km/h (1 Bft) O-NO - -2,2 C 3,3 C 2,5 km/h (1 Bft)